Hourly Data Report for December 01, 2020

CARBERRY CS
MANITOBA
Current Station Operator: ECCC - MSC

49°54'20.900" N
99°21'26.800" W
383.50 m
5010547
71170
WZE

Download Data

Hourly Data (December 2020)
Hourly Data Report for December 1, 2020
TIME
LST
Temp Definition
°C
Dew Point Definition
°C
Rel Hum Definition
%
Precip. Amount Definition
mm

Wind Dir Definition
10's deg

Wind Spd Definition
km/h
Visibility Definition
km
Stn Press Definition
kPa
Hmdx Definition


Wind Chill Definition


Weather Definition


00:00 -6.2 -9.7 76 0.0 17 10   96.22   -11 LegendNANA
01:00 -5.3 -8.7 77 0.0 18 11   96.15   -10 LegendNANA
02:00 -5.9 -8.9 79 0.0 19 11   96.17   -11 LegendNANA
03:00 -6.4 -9.4 79 0.0 19 10   96.18   -11 LegendNANA
04:00 -5.5 -9.1 75 0.0 23 10   96.19   -10 LegendNANA
05:00 -4.5 -8.6 73 0.0 23 12   96.17   -9 LegendNANA
06:00 -6.8 -9.8 79 0.0 22 7   96.19   -10 LegendNANA
07:00 -6.5 -9.4 80 0.0 26 19   96.25   -13 LegendNANA
08:00 -6.3 -9.7 77 0.0 25 13   96.30   -12 LegendNANA
09:00 -5.4 -9.2 75 0.0 24 16   96.32   -11 LegendNANA
10:00 -3.0 -7.6 70 0.0 24 14   96.43   -8 LegendNANA
11:00 -1.2 -6.1 69 0.0 26 17   96.52   -6 LegendNANA
12:00 0.3 -5.6 64 0.0 26 26   96.60     LegendNANA
13:00 0.9 -5.2 63 0.0 26 23   96.65     LegendNANA
14:00 1.7 -5.5 59 0.0 29 22   96.74     LegendNANA
15:00 1.9 -5.4 58 0.0 31 20   96.87     LegendNANA
16:00 1.6 -6.5 55 0.0 1 15   97.05     LegendNANA
17:00 -1.2 -7.1 64 0.0 34 12   97.21   -5 LegendNANA
18:00 -3.8 -8.4 71 0.0 31 10   97.37   -8 LegendNANA
19:00 -5.3 -9.5 72 0.0 32 5   97.50   -8 LegendNANA
20:00 -6.6 -8.6 86 0.0 29 5   97.63   -9 LegendNANA
21:00 -3.6 -6.2 82 0.0 30 4   97.75   -5 LegendNANA
22:00 -1.9 -5.3 78 0.0 27 8   97.80   -5 LegendNANA
23:00 -0.8 -3.8 80 0.0 28 10   97.88   -4 LegendNANA

Notes on Data Quality.

Legend

  • E = Estimated
  • M = Missing
  • NA = Not Available*
  • [empty] = Indicates an unobserved value
Date modified: